Location: Wien
(48.2082°N, 16.3738°E)
Time: 08:36:27
(UTC+02:00)

UNISAT 6 - Pass Details

Date: 01 May 2024
Orbit: 593 x 668 km, 97.7° (Epoch: 20 May)

Event Time Altitude Azimuth Distance (km) Brightness Sun altitude
Rises 03:56:26 0° 140° (SE) 2,884 ? -14.5°
Reaches altitude 10° 03:58:47 10° 131° (SE) 1,971 ? -14.2°
Maximum altitude 04:02:35 32° 68° (ENE) 1,043 ? -13.7°
Drops below altitude 10° 04:06:22 10° 5° (N) 1,953 ? -13.2°
Sets 04:08:41 0° 355° (N) 2,853 ? -13.0°
